Погода в Мензелинске

Поиск расширенной информации на нашем сайте:

Полезная информация:

Новости сайта



02.01.2020
Опубликован Долгосрочный прогноз погоды по городам России и ближнего зарубежья на январь 2020 года.
Карты: Прогноз на январь и февраль 2020 года, Сравнение прогнозируемой аномалии приземной температуры воздуха на январь 2020 года по разным моделям.




Погода в Мензелинске - сегодня

Время (UTC), дата Ветер
(°,м/с) 
Видим.   Явления Облачность Т
(°С)
Тd
(°С)
f(%) Тe
(°С)
Pmin
(гПа)
dP
(гПа)
Po
(мм)
O2
(г/м3)
Тmin Tmax R s Состояние
почвы
18 24.02.21 330 (СЗ) 10 км    ясно 
-21.7 -28.9 52 -27  1032.2  0.8  763  336           
21 24.02.21 330 (СЗ) 10 км    ясно 
-23.1 -29.4 56 -29  1032  -0.3  762  337           
00 25.02.21 тихо ()   10 км    1/0 верхняя 
[Ci fib]
-27.6 -32.6 62 -28  1032.4  0.1  762  344           
03 25.02.21 тихо ()   10 км    ясно 
-29 -33.5 65 -29  1032.4  0.1  762  346  -29.2      37  неравномерный
сухой снег
100% 
06 25.02.21 тихо ()   10 км    ясно 
-26 -30.7 65 -26  1031.7  -0.5  762  341  -30.6         
09 25.02.21 230 (ЮЗ) 10 км    3/0 верхняя 
[Ci fib]
-20.7 -27.9 52 -21  1029.9  -1.5  761  334           
12 25.02.21 150 (ЮВ) 10 км    3/0 верхняя 
[Ci fib]
-18.4 -26.4 49 -19  1027.9  -1.8  760  330           
15 25.02.21 140 (ЮВ) 10 км    8/0 верхняя 
[Cs]
-19.2 -26.8 51 -23  1025.9  -2  758  330    -18.3       
18 25.02.21 170 (Ю) 10 км    10/0 верхняя 
[Cs]
-19.6 -26.5 54 -24  1024.3  -1.6  757  330           
21 25.02.21 тихо ()   10 км    10/0 верхняя 
[Cs]
-21.4 -26.1 66 -21  1023.4  -1  756  332           
00 26.02.21 150 (ЮВ) 10 км    4/0 верхняя 
[Ci fib]
-21.4 -26.1 66 -27  1022.6  -0.8  755  332           
03 26.02.21 110 (В) 10 км    3/0 верхняя 
[Ci fib]
-22.7 -27 68 -26  1022.1  -0.6  755  334  -22.8      37  неравномерный
сухой снег
100% 
06 26.02.21 080 (В) 10 км    6/0 верхняя 
[Ci fib]
-21.6 -26.8 63 -26  1021.9  -0.2  755  332  -23.1         
09 26.02.21 120 (ЮВ) 10 км    3/0 верхняя 
[Ci fib]
-17.1 -24 55 -22  1021  -0.6  755  326           
12 26.02.21 130 (ЮВ) 10 км    ясно 
-14.9 -22.2 54 -20  1019.4  -1.4  753  323           
15 26.02.21 130 (ЮВ) 10 км    3/0 верхняя 
[Ci fib]
-17.6 -23.8 58 -23  1017.6  -1.9  752  326    -14.8       
18 26.02.21 140 (ЮВ) 10 км    10/0 верхняя 
[Cs]
-18.3 -23.6 63 -24  1014.2  -3.4  749  325           
21 26.02.21 120 (ЮВ) 10 км    10/0 средняя 
[As op]
-17.2 -22.1 66 -21  1010.2  -3.8  747  323           
00 27.02.21 120 (ЮВ) 1000 м  снег  10/0 средняя 
[As op]
-16.4 -19.8 75 -22  1006.5  -3.6  744  320           
03 27.02.21 120 (ЮВ) 4{10}  1000 м  снег  10/5 600 м средняя 
[Sc|As op]
-15.6 -18.9 76 -20  1002.8  -3.6  741  318  -18.9    40  неравномерный
сухой снег
100% 
06 27.02.21 120 (ЮВ) 10 км  слаб. ливневой снег  10/5 600 м кучево-дожд., верхняя 
[Cb cap|Ci fib]
-14.5 -17.8 76 -20  1001.4  -1.3  740  316           
09 27.02.21 110 (В) 1000 м  ливневой снег  10/5 600 м кучево-дожд., средняя 
[Cb cap|As op]
-12.2 -15.6 76 -16  1000.5  -0.7  740  313           
12 27.02.21 090 (В) 10 км  слаб. ливневой снег  10/6 600 м кучево-дожд., средняя 
[Cb cap|As op]
-10.7 -14.7 72 -16  1000.4  740  311           
15 27.02.21 080 (В) 10 км  {ливн. осадки, снег}  10/5 600 м средняя 
[Sc diur, vesp|Ac As]
-10.6 -14 76 -15  1001.1  0.6  740  311    -10.4     
18 27.02.21 070 (В) 10 км  в посл. час снег  10/6 600 м средняя 
[Sc diur, vesp|As trans]
-10.6 -13.5 79 -12  1000.9  0.1  740  311           
Время (UTC), дата Ветер
(°,м/с) 
Видим.   Явления Облачность Т
(°С)
Тd
(°С)
f(%) Тe
(°С)
Pmin
(гПа)
dP
(гПа)
Po
(мм)
O2
(г/м3)
Тmin Tmax R s Состояние
почвы

Для получения пояснительной информации подведите курсор к названию столбца.

ПОГОДА в Мензелинске - архив

Всё, что Вы хотите узнать о погоде в Мензелинске - удобно и подробно!

Выберите нужную дату (начиная с 1 января 2019* года) и нажмите кнопку "Найти".
Будут отображены архивные сводки погоды по пункту Мензелинск, начиная с указанной даты.


Отображать данные в формате CSV (для использования в таблицах Excel)


Внимание! Наш архив погоды предназначен исключительно для личного некоммерческого использования в познавательных целях. Если Вам необходимы официальные справки о состоянии погоды (для производственных, юридических, коммерческих и т.п. целей), обращайтесь в органы Росгидромета.

*Примечание: данная дата относится к архиву по метеостанциям СССР (Россия, СНГ, Балтия).
Архив по метеостанциям Зарубежной Европы и Азии (кроме Китая) хранится 10 дней, по другим регионам земного шара (Китай, Африка, Америка, Австралия, Океания) - 1 день.

Мензелинск - район местоположения метеостанции


Название, широта, долгота, высота метеостанции:
Мензелинск 55.7°ш. 53.1°д. 112 м над ур. моря [Российская Федерация]

Дополнительная информация

В oтличие oт бoльшинства пoгoдных сайтoв мы публикуем пoдрoбную метеoинфoрмацию в детальнoм прoфессиoнальнoм фoрмате.

Характеристики температуры и влажнoсти вoздуха измеряются на высoте 2 м в тени вдали oт зданий и деревьев.
Скoрoсть ветра измеряется на высoте 10 м (на урoвне рoста челoвека скoрoсть ветра ниже в 1.5-2 раза). Если метеoстанция нахoдится в гoрoде или в лесу, тo скoрoсть ветра занижена на 2-4 м/с пo сравнению с oткрытым местoм. Скoрoсть ветра над акватoриями крупных рек и oзёр, а также на вершинах хoлмoв на 2-5 м/с выше, чем в oбычных услoвиях.
Атмoсфернoе давление в разных тoчках местнoсти мoжет значительнo oтличаться oт давления на метеoстанции, в зависимoсти oт услoвий рельефа (при пoдъёме на 10 м давление пoнижается примернo на 1 мм рт.ст.).